Tracking 19638 objects as of 19-Apr-2019
HD Live streaming from Space Station
objects crossing your sky now

THORAD AGENA D DEB

Track THORAD AGENA D DEB now!
10-day predictions


NORAD ID: 42495
Int'l Code: 1970-025QZ
Perigee: 1,039.1 km
Apogee: 1,081.9 km
Inclination: 100.1 °
Period: 106.3 minutes
Semi major axis: 7431 km
RCS: Unknown
Launch date: April 8, 1970
Source: United States (US)
Launch site: AIR FORCE WESTERN TEST RANGE (AFWTR)

Note: This is SATELLITE DEBRIS
aabbcc
Your satellite tracking list
Your tracking list is empty




NASA's NSSDC Master Catalog

Two Line Element Set (TLE):
1 42495U 70025QZ  19107.39981340 +.00000008 +00000-0 +79590-4 0  9995
2 42495 100.0846 082.5905 0028770 128.1577 026.1269 13.55155068267098
Source of the keplerian elements: AFSPC